RH
63 59 66 68 65 65 88 77 79 55 48 40 32 28 27 30 33 39 51 53 56 57 54 56 58 59 61 65 71 75 77 80 81 84 86 88 92 94 100 99 96 92 93 97
100 84 69 76 63 61 61 64 60 56 55 36 31 31 35 36 36 40 40 50 52 54 54 56 56 58 61 65 71 77 77 79 86 86 90 93 97 100 100 99 100 99 99 99
87 86 94 92 66 61 60 56 58 73 52 38 40 42 41 38 37 40 40 39 47 51 54 55 56 58 60 64 70 75 76 79 85 86 90 98 100 99 99 100 99 99 99 100
78 70 87 43 46 50 51 47 46 52 46 41 39 37 41 38 39 38 35 37 42 47 52 54 56 60 60 66 72 78 79 83 87 90 96 100 99 99 99 99 100 100 99 100
84 72 50 45 47 53 54 45 41 45 42 41 40 45 50 40 40 39 34 33 40 47 51 55 60 62 65 72 73 79 81 84 89 93 97 100 99 99 100 99 99 98 97 90
94 78 68 38 50 44 47 54 47 48 48 50 55 60 46 44 41 37 34 39 48 54 57 57 60 65 67 70 73 76 80 84 90 94 99 100 99 99 99 98 90 84 76 76
85 80 59 39 48 48 53 44 51 59 59 61 61 48 49 51 54 60 49 46 55 60 57 59 68 70 70 73 77 78 85 92 95 99 100 98 100 100 100 96 90 88 84 82
74 86 72 47 57 52 38 52 52 57 58 58 55 53 54 57 62 62 62 66 63 62 68 77 80 76 76 83 86 87 89 98 100 100 100 100 100 100 100 93 83 77 72 70
58 50 46 45 37 36 45 47 50 57 57 52 55 55 56 57 58 58 60 65 67 72 83 87 85 79 83 86 88 90 95 98 100 100 100 100 100 100 100 91 78 66 61 54
63 41 48 45 39 47 46 48 49 52 57 57 57 53 56 57 56 56 59 61 64 66 68 78 81 83 77 86 89 91 90 93 99 100 100 100 100 100 99 92 80 64 60 51
62 50 43 40 42 38 41 45 50 56 57 59 60 60 58 57 56 55 58 61 63 62 63 68 79 81 82 84 88 87 88 96 99 100 100 100 100 99 99 90 75 62 55 44
65 58 52 42 46 44 46 47 52 58 60 61 60 62 61 60 60 59 58 66 72 73 71 77 80 83 82 87 88 88 90 95 100 100 100 100 100 100 100 93 69 60 46 42
48 54 56 52 50 58 53 52 61 59 57 62 65 62 64 65 70 72 67 68 67 65 67 67 72 76 84 91 92 93 98 99 100 100 100 100 100 100 100 99 84 60 50 49
40 50 68 60 59 63 62 62 68 68 69 67 67 69 70 71 76 76 78 80 79 76 76 74 73 77 79 82 88 92 97 99 100 100 100 100 100 99 95 68 59 65 66 69
36 39 65 63 68 69 69 66 67 69 70 71 72 71 70 68 69 74 78 82 83 82 80 81 80 77 76 79 85 89 94 100 100 100 100 100 98 95 90 72 59 50 54 48
61 70 76 73 72 73 69 69 68 70 69 72 74 76 76 75 74 74 78 82 82 79 84 86 85 79 80 81 83 89 94 94 100 100 100 100 99 95 93 86 76 61 53 50
63 67 82 84 81 76 70 68 66 70 73 72 74 75 69 67 69 70 76 82 83 85 89 94 93 88 86 85 88 92 95 96 100 100 100 99 98 96 93 86 79 69 57 50
67 72 74 73 71 77 79 77 78 79 77 78 76 73 71 70 71 72 75 80 83 84 93 92 92 89 91 91 90 94 98 99 100 100 99 100 100 99 98 96 80 70 61 54
82 86 83 81 78 77 80 82 83 85 88 91 89 85 87 92 93 92 90 87 89 87 99 98 89 87 91 94 96 99 100 100 100 100 100 100 100 99 99 99 98 98 94 96
85 85 84 83 82 80 78 78 71 68 71 72 75 70 72 79 78 83 93 94 91 97 96 98 99 95 90 94 100 100 100 100 100 100 100 100 100 100 100 100 100 100 99 98
97 96 92 89 92 93 89 84 80 76 72 70 69 72 73 79 83 96 84 80 84 89 85 76 83 98 100 100 99 100 100 100 100 100 100 100 100 100 99 100 99 99 98 98
96 99 96 98 97 86 70 74 78 78 77 78 83 80 74 75 86 94 93 88 91 91 88 78 92 95 98 99 99 99 99 100 100 100 100 100 99 99 99 99 99 99 98 98
94 82 82 85 77 64 53 56 67 69 74 77 74 69 70 71 81 73 67 81 86 98 89 82 99 99 80 73 83 99 100 99 99 99 99 99 99 99 99 98 98 98 99 99
98 59 56 62 67 61 44 46 56 58 59 59 61 60 68 67 80 76 67 65 63 69 68 77 98 97 78 79 81 94 99 99 100 100 99 99 99 99 98 98 98 98 98 99
97 71 62 59 55 48 46 46 50 54 56 56 56 58 64 61 61 59 60 59 59 60 62 60 64 66 72 78 85 88 90 97 100 100 100 100 100 100 100 99 99 99 100 100
96 76 59 55 49 46 45 44 48 44 51 54 52 52 57 64 60 56 58 59 58 58 59 60 63 65 65 67 77 79 84 86 89 93 99 100 100 100 100 100 99 99 100 100
83 76 68 61 52 48 48 48 49 46 45 51 51 49 53 62 62 58 57 57 58 58 59 61 65 67 69 73 76 79 76 74 74 85 100 98 92 95 98 100 99 100 100 100
Wind_Speed
6 3 5 5 13 17 17 17 15 13 19 21 23 22 21 14 7 6 8 10 13 13 12 16 16 15 14 14 14 13 12 11 10 9 7 7 5 4 3 4 4 2 2 2
2 6 7 8 11 12 19 23 23 25 26 20 20 18 19 18 16 12 11 12 15 15 16 18 19 18 17 16 15 14 12 11 11 10 8 6 5 5 5 5 5 4 4 4
3 5 3 6 15 18 14 14 18 20 23 15 16 15 15 14 14 14 15 17 17 18 20 21 21 20 19 17 15 14 13 12 11 9 8 7 6 7 7 7 6 6 6 5
2 5 6 1 3 8 13 19 17 19 22 20 17 17 15 15 17 16 12 12 15 17 21 21 18 18 16 16 16 14 13 12 12 12 10 8 9 9 9 9 9 9 9 9
4 7 6 12 5 6 7 9 14 21 19 18 15 11 19 16 15 16 15 9 13 20 21 18 18 17 18 17 17 16 15 14 13 12 12 11 12 13 13 13 12 11 10 10
3 4 6 1 4 6 5 5 4 7 8 9 3 6 7 7 8 14 15 8 9 14 17 18 18 19 19 19 18 18 17 15 14 13 13 13 16 15 15 14 12 11 12 10
6 5 5 6 6 8 5 1 4 6 6 6 6 7 7 9 6 3 3 6 8 13 15 15 17 19 18 17 18 16 14 13 13 13 12 14 15 17 16 15 12 10 9 8
6 4 10 7 7 6 2 2 2 3 3 5 7 6 6 4 3 1 4 6 8 11 11 12 15 17 16 16 15 15 15 14 13 12 13 15 17 17 17 15 13 12 10 9
6 4 2 10 4 8 3 1 2 3 2 3 3 3 2 2 0 2 4 7 7 9 11 10 12 13 13 13 15 15 14 13 12 12 14 17 19 18 17 14 13 13 11 10
2 4 8 6 8 6 6 9 4 4 2 3 3 2 2 0 1 2 4 6 7 9 9 9 10 10 9 13 14 14 14 13 12 13 17 18 19 20 18 16 16 14 12 11
7 10 9 10 11 10 8 8 7 3 2 2 2 1 1 1 2 2 4 5 6 7 7 9 11 12 12 13 15 14 13 13 13 15 18 20 20 21 22 16 17 15 14 13
3 6 8 7 9 6 7 7 7 5 3 3 1 2 1 2 1 2 4 5 5 6 6 7 10 12 13 14 16 16 15 14 14 16 19 20 19 18 20 16 18 19 16 15
7 7 10 14 10 6 5 4 5 5 4 6 5 4 4 3 4 2 1 3 6 8 10 11 11 13 13 15 18 20 18 15 15 19 20 20 18 17 14 17 21 21 20 19
10 9 7 5 5 5 2 3 6 7 6 6 7 5 5 5 4 4 4 3 4 6 7 9 12 15 16 18 21 22 18 18 20 21 22 22 20 19 16 16 16 17 23 21
14 9 10 10 6 3 2 6 6 5 4 5 6 6 5 4 3 3 3 4 3 3 5 6 9 14 15 17 21 23 22 16 17 17 22 23 23 23 19 17 16 15 13 19
12 7 7 7 5 3 3 4 6 5 4 3 4 4 3 2 2 2 3 3 3 4 4 6 9 11 13 17 19 21 23 23 20 17 20 21 21 21 19 19 18 17 17 19
9 8 8 4 4 3 3 2 3 5 4 3 2 2 2 2 1 4 5 4 4 4 5 6 7 8 10 15 18 21 22 23 21 21 23 23 23 23 21 20 20 19 21 22
8 8 7 8 5 5 5 4 6 6 4 3 2 2 3 4 4 5 7 8 5 3 4 7 7 8 10 13 16 18 20 21 22 23 25 25 25 25 23 22 21 21 21 25
1 1 2 3 7 8 7 5 6 6 5 3 3 3 3 4 4 4 5 4 7 5 10 11 10 8 7 9 13 17 17 15 19 21 23 23 22 24 25 26 27 26 23 24
4 4 7 10 10 9 8 6 6 6 4 3 3 3 3 3 4 4 3 5 6 5 10 11 11 9 8 6 8 14 17 18 18 18 19 20 21 22 24 25 26 26 25 26
3 5 7 8 8 8 7 6 5 5 3 4 3 2 2 2 3 2 1 0 6 8 8 9 9 9 9 8 7 8 13 16 18 19 20 20 21 21 22 23 24 25 25 25
4 5 6 6 5 5 4 3 3 3 3 2 2 1 1 2 2 1 2 4 6 8 8 8 8 10 10 9 8 7 8 10 13 15 16 17 18 18 20 21 21 22 23 23
5 3 3 2 1 1 2 2 2 2 2 1 1 1 1 2 1 1 0 5 6 8 7 7 9 10 10 9 8 7 7 7 8 9 10 11 13 14 15 15 16 16 17 17
3 4 1 0 1 2 2 2 2 2 1 1 0 1 1 1 1 1 4 5 6 8 8 8 9 9 9 8 8 7 6 7 8 8 9 9 10 11 12 13 14 15 16 17
5 8 5 4 3 4 3 3 3 3 3 3 3 3 3 2 2 4 5 6 6 7 7 7 8 8 8 9 8 9 8 7 8 9 9 10 11 12 13 13 13 14 14 15
6 8 8 8 7 6 6 5 5 5 5 4 4 5 5 4 5 5 6 6 6 7 8 8 8 9 9 9 9 9 10 11 11 10 10 10 11 13 14 16 18 19 17 16
10 10 10 10 11 11 11 10 9 8 7 7 6 6 6 6 6 7 7 7 7 8 8 9 10 10 11 11 11 11 12 13 14 14 13 13 15 16 16 16 17 17 18 19
Wind_Direction
236 129 168 205 208 213 217 232 240 257 244 241 256 274 292 297 275 255 222 213 203 202 196 191 190 186 186 186 183 182 182 181 183 183 190 192 200 208 209 213 202 160 126 101
243 231 240 247 235 236 230 237 246 251 261 255 260 265 267 268 271 254 248 226 217 210 205 197 196 197 192 192 189 187 189 189 184 181 190 197 202 204 212 212 200 175 164 147
208 165 159 256 232 223 225 231 233 241 246 262 261 254 260 268 268 261 252 242 217 212 202 204 200 198 196 193 189 189 194 192 189 186 187 197 206 212 198 197 182 166 151 143
153 156 237 324 155 229 247 252 241 256 262 264 269 281 283 266 264 268 259 242 229 216 208 206 199 198 191 188 189 189 194 193 189 193 189 192 204 207 191 188 182 175 162 162
191 213 312 280 218 189 201 277 238 241 258 272 286 296 276 258 249 252 256 247 226 214 206 199 196 193 187 187 189 193 195 196 194 193 192 193 201 201 195 191 188 185 172 164
164 216 224 167 168 175 162 264 190 218 255 275 301 272 292 348 296 249 238 244 211 194 184 187 191 186 186 190 191 197 197 196 194 195 198 198 207 199 195 192 190 180 173 177
208 237 263 242 154 163 240 66 166 208 252 259 239 264 322 319 316 312 230 208 195 177 180 180 174 177 185 188 198 199 191 188 190 195 200 212 208 202 196 191 186 181 181 185
211 239 259 134 123 219 68 131 244 242 264 265 267 275 284 313 334 66 121 134 159 159 156 161 169 174 178 191 191 189 189 189 191 197 204 209 203 198 196 187 183 188 191 200
227 225 38 194 249 206 160 245 227 255 285 265 241 238 298 324 97 97 116 125 137 146 142 155 170 177 180 191 187 185 184 187 192 196 206 209 202 195 191 189 193 198 203 209
284 244 250 246 241 248 231 241 238 246 259 181 273 269 281 174 150 138 132 138 143 146 152 164 180 184 192 182 181 182 188 191 193 196 207 209 205 203 193 198 201 204 206 215
272 286 281 257 243 246 241 245 250 229 223 213 205 153 100 128 149 138 146 155 161 171 182 187 185 187 191 189 184 187 193 196 198 205 201 208 211 210 209 215 209 206 211 214
234 11 314 318 343 321 246 245 217 198 158 98 102 112 83 76 79 164 177 172 187 202 214 212 206 200 196 197 194 191 196 202 203 206 202 208 207 215 222 223 225 221 227 230
274 343 313 293 295 287 286 248 194 179 156 136 90 89 76 66 41 60 161 200 212 220 226 220 217 215 211 207 203 202 201 204 205 208 204 204 207 209 217 232 229 232 235 239
324 336 319 342 326 331 300 101 117 102 98 103 116 95 97 96 72 56 31 336 275 247 235 224 223 227 224 218 216 215 212 220 215 207 210 211 214 215 219 220 217 229 234 234
287 266 262 286 296 293 114 119 125 115 112 96 83 90 86 94 81 52 14 352 322 277 262 244 236 239 229 220 221 223 222 214 212 213 219 219 220 219 220 224 228 231 231 233
311 298 274 270 268 209 154 145 146 140 131 106 100 75 57 43 7 353 1 1 335 315 309 273 259 260 247 233 228 228 230 231 220 216 221 220 221 220 222 228 232 232 232 233
303 325 331 270 218 196 196 143 151 139 126 120 91 57 29 7 33 6 350 341 327 311 307 302 291 281 255 242 235 234 232 232 224 227 227 226 227 226 227 231 231 232 237 241
264 280 276 265 245 149 126 109 118 121 112 110 83 26 21 32 19 359 344 337 344 12 19 344 329 304 264 249 241 239 240 236 230 223 231 234 233 233 228 228 232 236 240 250
71 50 41 79 123 119 119 120 110 104 92 76 81 72 67 45 17 347 345 22 33 22 352 346 341 327 307 259 243 241 237 232 233 231 233 237 234 240 239 239 238 238 238 239
73 76 75 76 80 100 107 110 116 100 79 84 99 85 72 31 358 353 25 66 36 357 335 337 340 338 329 311 256 246 246 240 238 239 239 236 236 238 242 246 247 247 245 246
66 81 85 88 87 82 83 84 91 84 70 68 85 74 62 17 9 19 75 152 359 353 347 346 348 345 338 321 305 275 262 258 255 252 251 246 245 246 247 250 253 253 253 254
55 80 90 93 92 89 76 75 85 99 97 97 93 70 78 48 34 122 84 24 341 355 348 355 352 348 341 327 327 309 288 276 270 268 266 264 263 258 257 258 257 259 262 262
17 28 73 88 70 109 109 86 110 129 138 134 111 50 25 360 354 352 241 337 343 345 345 349 342 347 342 343 336 326 321 312 299 290 284 280 275 272 269 267 267 267 267 266
326 332 323 266 187 213 226 213 193 184 183 194 254 305 306 287 215 256 335 329 338 352 352 343 339 342 343 350 348 342 334 325 319 314 307 300 291 286 282 279 278 276 273 272
277 280 269 264 254 257 255 236 232 230 229 236 244 250 259 279 275 298 320 329 338 338 334 336 337 340 347 346 341 339 336 329 325 316 309 304 300 297 293 289 286 283 280 274
258 259 261 258 253 259 259 246 248 245 234 241 253 245 252 266 292 298 304 312 320 323 324 329 335 336 335 332 326 325 323 322 322 316 310 303 298 295 292 290 289 288 283 276
261 256 259 262 256 251 249 247 247 254 245 241 247 254 257 262 277 285 293 301 306 313 320 325 328 331 330 326 323 321 321 318 314 307 302 300 300 293 288 286 283 282 281 280